Time,TemperatureF,DewpointF,PressureIn,WindDirection,WindDirectionDegrees,WindSpeedMPH,WindSpeedGustMPH,Humidity,HourlyPrecipIn,Conditions,Clouds,dailyrainin,SoftwareType,DateUTC
2013-04-04 00:01:00,55.8,30.6,29.23,SE,132,0.0,0.0,38,0.00,,---,0.00,VWS V14.01,2013-04-04 07:01:00,
2013-04-04 00:06:00,55.9,30.1,29.23,SE,132,0.0,0.0,37,0.00,,---,0.00,VWS V14.01,2013-04-04 07:06:00,
2013-04-04 00:11:00,55.8,29.9,29.23,SSE,150,3.6,4.0,37,0.00,,---,0.00,VWS V14.01,2013-04-04 07:11:00,
2013-04-04 00:16:00,55.2,29.4,29.23,SSE,150,0.0,0.0,37,0.00,,---,0.00,VWS V14.01,2013-04-04 07:16:00,
2013-04-04 00:21:00,55.9,30.1,29.23,SW,216,4.0,6.7,37,0.00,,---,0.00,VWS V14.01,2013-04-04 07:21:00,
2013-04-04 00:26:00,56.3,29.7,29.23,SW,226,4.9,6.3,36,0.00,,---,0.00,VWS V14.01,2013-04-04 07:26:00,
2013-04-04 00:31:00,56.3,29.7,29.23,SW,217,4.0,5.4,36,0.00,,---,0.00,VWS V14.01,2013-04-04 07:31:00,
2013-04-04 00:36:00,56.3,29.7,29.26,SE,130,5.4,5.4,36,0.00,,---,0.00,VWS V14.01,2013-04-04 07:36:00,
2013-04-04 00:41:00,56.1,30.2,29.26,SE,141,6.7,6.7,37,0.00,,---,0.00,VWS V14.01,2013-04-04 07:41:00,
2013-04-04 00:46:00,55.8,31.2,29.26,SSE,151,6.3,6.3,39,0.00,,---,0.00,VWS V14.01,2013-04-04 07:46:00,
2013-04-04 00:51:00,55.9,32.6,29.23,South,171,4.0,5.4,41,0.00,,---,0.00,VWS V14.01,2013-04-04 07:51:00,
2013-04-04 00:56:00,55.8,33.0,29.23,SSE,165,3.1,5.4,42,0.00,,---,0.00,VWS V14.01,2013-04-04 07:56:00,
2013-04-04 01:01:00,55.6,33.5,29.23,SSW,192,5.8,6.3,43,0.00,,---,0.00,VWS V14.01,2013-04-04 08:01:00,
2013-04-04 01:06:00,55.6,34.0,29.23,South,186,3.6,4.5,44,0.00,,---,0.00,VWS V14.01,2013-04-04 08:06:00,
2013-04-04 01:11:00,55.6,34.0,29.23,SSW,200,6.7,6.7,44,0.00,,---,0.00,VWS V14.01,2013-04-04 08:11:00,
2013-04-04 01:16:00,55.4,34.4,29.23,South,177,5.4,6.7,45,0.00,,---,0.00,VWS V14.01,2013-04-04 08:16:00,
2013-04-04 01:21:00,55.4,35.0,29.23,South,176,3.6,4.5,46,0.00,,---,0.00,VWS V14.01,2013-04-04 08:21:00,
2013-04-04 01:26:00,55.4,35.0,29.23,South,185,4.9,5.8,46,0.00,,---,0.00,VWS V14.01,2013-04-04 08:26:00,
2013-04-04 01:31:00,55.4,35.0,29.23,SSW,200,4.5,5.8,46,0.00,,---,0.00,VWS V14.01,2013-04-04 08:31:00,
2013-04-04 01:36:00,55.4,35.0,29.23,SW,216,6.7,7.8,46,0.00,,---,0.00,VWS V14.01,2013-04-04 08:36:00,
2013-04-04 01:41:00,55.4,35.0,29.23,SSW,209,3.1,4.5,46,0.00,,---,0.00,VWS V14.01,2013-04-04 08:41:00,
2013-04-04 01:46:00,55.2,34.8,29.23,SSW,200,4.9,5.4,46,0.00,,---,0.00,VWS V14.01,2013-04-04 08:46:00,
2013-04-04 01:51:00,55.2,34.8,29.23,SSW,197,3.1,4.0,46,0.00,,---,0.00,VWS V14.01,2013-04-04 08:51:00,
2013-04-04 01:57:00,55.0,34.7,29.23,WSW,246,4.9,5.8,46,0.00,,---,0.00,VWS V14.01,2013-04-04 08:57:00,
2013-04-04 02:02:00,55.0,35.2,29.23,WSW,239,6.3,6.3,47,0.00,,---,0.00,VWS V14.01,2013-04-04 09:02:00,
2013-04-04 02:07:00,55.0,35.2,29.23,WSW,239,4.5,4.5,47,0.00,,---,0.00,VWS V14.01,2013-04-04 09:07:00,
2013-04-04 02:12:00,54.9,35.0,29.23,WSW,249,3.1,3.6,47,0.00,,---,0.00,VWS V14.01,2013-04-04 09:12:00,
2013-04-04 02:17:00,54.9,35.0,29.23,West,263,6.9,6.9,47,0.00,,---,0.00,VWS V14.01,2013-04-04 09:17:00,
2013-04-04 02:22:00,54.7,34.9,29.23,West,259,7.4,8.7,47,0.00,,---,0.00,VWS V14.01,2013-04-04 09:22:00,
2013-04-04 02:27:00,54.7,34.3,29.23,WSW,250,6.7,7.8,46,0.00,,---,0.00,VWS V14.01,2013-04-04 09:27:00,
2013-04-04 02:33:00,54.7,34.3,29.23,SW,235,6.7,6.9,46,0.00,,---,0.00,VWS V14.01,2013-04-04 09:33:00,
2013-04-04 02:38:00,54.7,33.8,29.23,SW,230,4.9,6.7,45,0.00,,---,0.00,VWS V14.01,2013-04-04 09:38:00,
2013-04-04 02:43:00,54.5,33.6,29.23,WSW,244,5.8,6.7,45,0.00,,---,0.00,VWS V14.01,2013-04-04 09:43:00,
2013-04-04 02:49:00,54.3,34.0,29.23,WSW,242,4.5,5.8,46,0.00,,---,0.00,VWS V14.01,2013-04-04 09:49:00,
2013-04-04 02:54:00,54.3,34.0,29.23,WSW,240,3.6,4.0,46,0.00,,---,0.00,VWS V14.01,2013-04-04 09:54:00,
2013-04-04 03:00:00,54.3,34.0,29.23,SW,234,4.9,4.9,46,0.00,,---,0.00,VWS V14.01,2013-04-04 10:00:00,
2013-04-04 03:05:00,54.5,34.2,29.23,WSW,245,6.9,7.4,46,0.00,,---,0.00,VWS V14.01,2013-04-04 10:05:00,
2013-04-04 03:11:00,54.5,33.6,29.23,WSW,241,6.3,6.3,45,0.00,,---,0.00,VWS V14.01,2013-04-04 10:11:00,
2013-04-04 03:16:00,54.7,33.8,29.23,SW,234,6.3,6.7,45,0.00,,---,0.00,VWS V14.01,2013-04-04 10:16:00,
2013-04-04 03:21:00,54.7,33.8,29.23,WSW,237,5.4,5.4,45,0.00,,---,0.00,VWS V14.01,2013-04-04 10:21:00,
2013-04-04 03:26:00,54.5,33.0,29.23,West,267,3.6,5.4,44,0.00,,---,0.00,VWS V14.01,2013-04-04 10:26:00,
2013-04-04 03:31:00,54.0,33.1,29.23,West,263,4.5,4.9,45,0.00,,---,0.00,VWS V14.01,2013-04-04 10:31:00,
2013-04-04 03:36:00,53.6,33.3,29.23,WNW,289,5.8,7.4,46,0.00,,---,0.00,VWS V14.01,2013-04-04 10:36:00,
2013-04-04 03:41:00,53.4,33.7,29.23,NW,307,3.6,4.9,47,0.00,,---,0.00,VWS V14.01,2013-04-04 10:41:00,
2013-04-04 03:46:00,53.4,35.3,29.23,NW,323,3.1,3.6,50,0.00,,---,0.00,VWS V14.01,2013-04-04 10:46:00,
2013-04-04 03:51:00,53.2,36.1,29.21,NW,321,3.1,4.9,52,0.00,,---,0.00,VWS V14.01,2013-04-04 10:51:00,
2013-04-04 03:56:00,53.2,36.1,29.21,NW,313,0.0,3.6,52,0.00,,---,0.00,VWS V14.01,2013-04-04 10:56:00,
2013-04-04 04:01:00,53.2,36.1,29.21,NW,313,0.0,0.0,52,0.00,,---,0.00,VWS V14.01,2013-04-04 11:01:00,
2013-04-04 04:06:00,53.2,37.0,29.23,NNW,330,0.0,4.5,54,0.00,,---,0.00,VWS V14.01,2013-04-04 11:06:00,
2013-04-04 04:12:00,52.9,36.2,29.23,NW,315,4.5,6.9,53,0.00,,---,0.00,VWS V14.01,2013-04-04 11:12:00,
2013-04-04 04:17:00,52.7,36.5,29.23,WNW,294,6.9,8.3,54,0.00,,---,0.00,VWS V14.01,2013-04-04 11:17:00,
2013-04-04 04:23:00,52.5,36.4,29.23,WNW,295,5.8,6.3,54,0.00,,---,0.00,VWS V14.01,2013-04-04 11:23:00,
2013-04-04 04:28:00,52.5,36.8,29.23,West,263,5.8,10.5,55,0.00,,---,0.00,VWS V14.01,2013-04-04 11:28:00,
2013-04-04 04:34:00,52.0,36.3,29.23,West,270,6.9,11.0,55,0.00,,---,0.00,VWS V14.01,2013-04-04 11:34:00,
2013-04-04 04:39:00,51.8,36.2,29.23,West,269,7.8,10.5,55,0.00,,---,0.00,VWS V14.01,2013-04-04 11:39:00,
2013-04-04 04:44:00,51.6,36.0,29.23,WSW,254,6.7,7.4,55,0.00,,---,0.00,VWS V14.01,2013-04-04 11:44:00,
2013-04-04 04:50:00,51.3,35.7,29.26,WSW,255,7.4,7.8,55,0.00,,---,0.00,VWS V14.01,2013-04-04 11:50:00,
2013-04-04 04:55:00,51.1,35.0,29.26,WSW,256,7.8,12.5,54,0.00,,---,0.00,VWS V14.01,2013-04-04 11:55:00,
2013-04-04 05:01:00,50.9,34.4,29.26,West,281,13.9,13.9,53,0.00,,---,0.00,VWS V14.01,2013-04-04 12:01:00,
2013-04-04 05:06:00,51.1,35.5,29.26,West,274,9.2,12.5,55,0.00,,---,0.00,VWS V14.01,2013-04-04 12:06:00,
2013-04-04 05:12:00,51.3,36.1,29.26,West,280,7.8,11.6,56,0.00,,---,0.00,VWS V14.01,2013-04-04 12:12:00,
2013-04-04 05:17:00,51.3,36.6,29.26,WNW,289,8.7,13.4,57,0.00,,---,0.00,VWS V14.01,2013-04-04 12:17:00,
2013-04-04 05:22:00,51.1,36.0,29.26,WNW,286,6.7,9.6,56,0.00,,---,0.00,VWS V14.01,2013-04-04 12:22:00,
2013-04-04 05:27:00,51.1,36.0,29.26,WNW,288,5.8,7.8,56,0.00,,---,0.00,VWS V14.01,2013-04-04 12:27:00,
2013-04-04 05:32:00,51.1,36.4,29.26,NNW,330,6.3,8.3,57,0.00,,---,0.00,VWS V14.01,2013-04-04 12:32:00,
2013-04-04 05:37:00,51.1,36.4,29.26,NW,309,4.9,5.4,57,0.00,,---,0.00,VWS V14.01,2013-04-04 12:37:00,
2013-04-04 05:42:00,50.9,35.8,29.26,WNW,300,3.1,4.0,56,0.00,,---,0.00,VWS V14.01,2013-04-04 12:42:00,
2013-04-04 05:47:00,50.7,35.6,29.23,WNW,285,0.0,0.0,56,0.00,,---,0.00,VWS V14.01,2013-04-04 12:47:00,
2013-04-04 05:52:00,50.7,35.6,29.23,West,274,4.0,4.0,56,0.00,,---,0.00,VWS V14.01,2013-04-04 12:52:00,
2013-04-04 05:57:00,50.7,35.6,29.23,West,271,2.7,4.0,56,0.00,,---,0.00,VWS V14.01,2013-04-04 12:57:00,
2013-04-04 06:02:00,50.9,36.2,29.23,NW,310,4.5,4.9,57,0.00,,---,0.00,VWS V14.01,2013-04-04 13:02:00,
2013-04-04 06:07:00,51.4,38.0,29.23,NNW,338,5.8,6.7,60,0.00,,---,0.00,VWS V14.01,2013-04-04 13:07:00,
2013-04-04 06:12:00,51.3,38.3,29.23,NNW,334,4.0,4.0,61,0.00,,---,0.00,VWS V14.01,2013-04-04 13:12:00,
2013-04-04 06:17:00,51.3,38.3,29.26,NW,313,3.6,4.0,61,0.00,,---,0.00,VWS V14.01,2013-04-04 13:17:00,
2013-04-04 06:22:00,51.3,38.3,29.26,WNW,301,2.7,3.1,61,0.00,,---,0.00,VWS V14.01,2013-04-04 13:22:00,
2013-04-04 06:27:00,51.3,38.3,29.26,WNW,301,0.0,0.0,61,0.00,,---,0.00,VWS V14.01,2013-04-04 13:27:00,
2013-04-04 06:32:00,51.3,38.3,29.26,North,0,3.6,4.0,61,0.00,,---,0.00,VWS V14.01,2013-04-04 13:32:00,
2013-04-04 06:38:00,51.1,37.7,29.26,North,356,3.6,4.0,60,0.00,,---,0.00,VWS V14.01,2013-04-04 13:38:00,
2013-04-04 06:43:00,51.1,37.3,29.26,North,6,3.1,3.6,59,0.00,,---,0.00,VWS V14.01,2013-04-04 13:43:00,
2013-04-04 06:48:00,51.3,37.4,29.26,NNE,16,4.0,4.9,59,0.00,,---,0.00,VWS V14.01,2013-04-04 13:48:00,
2013-04-04 06:53:00,51.1,36.0,29.26,NNE,33,4.9,5.8,56,0.00,,---,0.00,VWS V14.01,2013-04-04 13:53:00,
2013-04-04 06:58:00,50.9,35.3,29.26,NE,38,5.4,5.4,55,0.00,,---,0.00,VWS V14.01,2013-04-04 13:58:00,
2013-04-04 07:03:00,51.3,35.2,29.26,NNE,28,5.8,6.3,54,0.00,,---,0.00,VWS V14.01,2013-04-04 14:03:00,
2013-04-04 07:08:00,51.4,33.9,29.26,NNE,26,4.5,5.4,51,0.00,,---,0.00,VWS V14.01,2013-04-04 14:08:00,
2013-04-04 07:13:00,51.4,33.4,29.26,NNE,18,0.0,0.0,50,0.00,,---,0.00,VWS V14.01,2013-04-04 14:13:00,
2013-04-04 07:19:00,51.8,33.3,29.26,North,8,4.5,4.5,49,0.00,,---,0.00,VWS V14.01,2013-04-04 14:19:00,
2013-04-04 07:24:00,52.3,32.2,29.26,NNW,340,4.0,5.4,46,0.00,,---,0.00,VWS V14.01,2013-04-04 14:24:00,
2013-04-04 07:30:00,52.5,30.7,29.26,North,351,4.5,5.4,43,0.00,,---,0.00,VWS V14.01,2013-04-04 14:30:00,
2013-04-04 07:35:00,52.7,33.0,29.29,NNW,343,4.0,4.9,47,0.00,,---,0.00,VWS V14.01,2013-04-04 14:35:00,
2013-04-04 07:40:00,52.7,33.0,29.29,NW,326,3.1,5.4,47,0.00,,---,0.00,VWS V14.01,2013-04-04 14:40:00,
2013-04-04 07:45:00,52.9,33.7,29.29,North,351,2.7,4.0,48,0.00,,---,0.00,VWS V14.01,2013-04-04 14:45:00,
2013-04-04 07:50:00,53.2,34.6,29.29,North,356,0.0,0.0,49,0.00,,---,0.00,VWS V14.01,2013-04-04 14:50:00,
2013-04-04 07:55:00,53.8,35.6,29.29,NE,38,4.5,4.5,50,0.00,,---,0.00,VWS V14.01,2013-04-04 14:55:00,
2013-04-04 08:00:00,54.1,35.4,29.29,SW,223,0.0,4.9,49,0.00,,---,0.00,VWS V14.01,2013-04-04 15:00:00,
2013-04-04 08:05:00,54.3,35.6,29.29,East,93,0.0,3.6,49,0.00,,---,0.00,VWS V14.01,2013-04-04 15:05:00,
2013-04-04 08:10:00,54.7,36.4,29.29,SE,142,0.0,5.4,50,0.00,,---,0.00,VWS V14.01,2013-04-04 15:10:00,
2013-04-04 08:15:00,54.7,34.3,29.29,ESE,106,3.6,5.4,46,0.00,,---,0.00,VWS V14.01,2013-04-04 15:15:00,
2013-04-04 08:20:00,55.2,34.3,29.29,East,95,3.6,3.6,45,0.00,,---,0.00,VWS V14.01,2013-04-04 15:20:00,
2013-04-04 08:25:00,55.8,35.3,29.29,ESE,110,2.7,3.1,46,0.00,,---,0.00,VWS V14.01,2013-04-04 15:25:00,
2013-04-04 08:30:00,55.9,33.8,29.29,SE,130,5.4,5.4,43,0.00,,---,0.00,VWS V14.01,2013-04-04 15:30:00,
2013-04-04 08:35:00,56.1,35.1,29.29,South,172,3.6,5.4,45,0.00,,---,0.00,VWS V14.01,2013-04-04 15:35:00,
2013-04-04 08:40:00,56.5,35.4,29.29,South,170,0.0,0.0,45,0.00,,---,0.00,VWS V14.01,2013-04-04 15:40:00,
2013-04-04 08:45:00,56.8,35.2,29.29,South,180,3.1,4.0,44,0.00,,---,0.00,VWS V14.01,2013-04-04 15:45:00,
2013-04-04 08:50:00,56.5,33.7,29.29,South,180,0.0,0.0,42,0.00,,---,0.00,VWS V14.01,2013-04-04 15:50:00,
2013-04-04 08:56:00,56.8,33.4,29.29,South,185,0.0,0.0,41,0.00,,---,0.00,VWS V14.01,2013-04-04 15:56:00,
2013-04-04 09:01:00,56.8,32.8,29.29,South,185,0.0,0.0,40,0.00,,---,0.00,VWS V14.01,2013-04-04 16:01:00,
2013-04-04 09:06:00,57.0,34.2,29.29,South,185,0.0,0.0,42,0.00,,---,0.00,VWS V14.01,2013-04-04 16:06:00,
2013-04-04 09:11:00,57.2,34.9,29.29,SW,217,0.0,3.1,43,0.00,,---,0.00,VWS V14.01,2013-04-04 16:11:00,
2013-04-04 09:16:00,57.6,35.8,29.29,SW,217,0.0,0.0,44,0.00,,---,0.00,VWS V14.01,2013-04-04 16:16:00,
2013-04-04 09:21:00,58.1,36.3,29.29,SW,222,0.0,0.0,44,0.00,,---,0.00,VWS V14.01,2013-04-04 16:21:00,
2013-04-04 09:26:00,58.3,35.3,29.29,SW,236,0.0,0.0,42,0.00,,---,0.00,VWS V14.01,2013-04-04 16:26:00,
2013-04-04 09:31:00,58.6,35.0,29.29,WSW,254,0.0,0.0,41,0.00,,---,0.00,VWS V14.01,2013-04-04 16:31:00,
2013-04-04 09:36:00,59.2,34.9,29.29,WSW,254,0.0,0.0,40,0.00,,---,0.00,VWS V14.01,2013-04-04 16:36:00,
2013-04-04 09:41:00,59.0,33.5,29.29,West,267,0.0,0.0,38,0.00,,---,0.00,VWS V14.01,2013-04-04 16:41:00,
2013-04-04 09:47:00,59.4,33.8,29.29,West,270,0.0,0.0,38,0.00,,---,0.00,VWS V14.01,2013-04-04 16:47:00,
2013-04-04 09:52:00,59.4,33.8,29.29,WNW,294,3.6,4.5,38,0.00,,---,0.00,VWS V14.01,2013-04-04 16:52:00,
2013-04-04 09:57:00,59.4,33.8,29.29,West,264,0.0,2.7,38,0.00,,---,0.00,VWS V14.01,2013-04-04 16:57:00,
2013-04-04 10:02:00,59.7,34.1,29.29,WNW,300,0.0,0.0,38,0.00,,---,0.00,VWS V14.01,2013-04-04 17:02:00,
2013-04-04 10:08:00,60.1,33.8,29.29,WNW,283,0.0,4.5,37,0.00,,---,0.00,VWS V14.01,2013-04-04 17:08:00,
2013-04-04 10:13:00,60.6,35.5,29.29,West,273,0.0,5.8,39,0.00,,---,0.00,VWS V14.01,2013-04-04 17:13:00,
2013-04-04 10:19:00,60.1,33.8,29.32,West,262,4.0,4.9,37,0.00,,---,0.00,VWS V14.01,2013-04-04 17:19:00,
2013-04-04 10:24:00,60.1,35.1,29.32,WSW,256,3.6,4.9,39,0.00,,---,0.00,VWS V14.01,2013-04-04 17:24:00,
2013-04-04 10:29:00,59.9,34.9,29.32,West,271,3.6,5.4,39,0.00,,---,0.00,VWS V14.01,2013-04-04 17:29:00,
2013-04-04 10:34:00,59.7,35.4,29.32,West,270,0.0,0.0,40,0.00,,---,0.00,VWS V14.01,2013-04-04 17:34:00,
2013-04-04 10:40:00,60.1,35.7,29.32,West,270,0.0,0.0,40,0.00,,---,0.00,VWS V14.01,2013-04-04 17:40:00,
2013-04-04 10:45:00,60.4,36.7,29.32,WSW,248,0.0,0.0,41,0.00,,---,0.00,VWS V14.01,2013-04-04 17:45:00,
2013-04-04 10:52:00,61.9,36.7,29.32,SW,214,0.0,0.0,39,0.00,,---,0.00,VWS V14.01,2013-04-04 17:52:00,
2013-04-04 10:57:00,63.7,37.0,29.32,WSW,258,0.0,6.3,37,0.00,,---,0.00,VWS V14.01,2013-04-04 17:57:00,
2013-04-04 11:02:00,62.8,34.0,29.32,SW,236,6.7,7.4,34,0.00,,---,0.00,VWS V14.01,2013-04-04 18:02:00,
2013-04-04 11:07:00,63.5,34.7,29.32,WSW,252,3.6,4.9,34,0.00,,---,0.00,VWS V14.01,2013-04-04 18:07:00,
2013-04-04 11:12:00,63.5,34.7,29.32,SW,230,0.0,6.7,34,0.00,,---,0.00,VWS V14.01,2013-04-04 18:12:00,
2013-04-04 11:17:00,64.0,34.4,29.32,SSW,198,6.7,6.9,33,0.00,,---,0.00,VWS V14.01,2013-04-04 18:17:00,
2013-04-04 11:23:00,64.2,34.5,29.32,SW,222,2.7,5.8,33,0.00,,---,0.00,VWS V14.01,2013-04-04 18:23:00,
2013-04-04 11:28:00,64.8,35.0,29.32,SW,222,7.4,10.1,33,0.00,,---,0.00,VWS V14.01,2013-04-04 18:28:00,
2013-04-04 11:33:00,65.5,34.1,29.32,WSW,237,6.9,8.3,31,0.00,,---,0.00,VWS V14.01,2013-04-04 18:33:00,
2013-04-04 11:38:00,64.9,32.8,29.32,SW,235,6.3,8.3,30,0.00,,---,0.00,VWS V14.01,2013-04-04 18:38:00,
2013-04-04 11:43:00,64.8,31.8,29.32,SSW,212,8.7,10.1,29,0.00,,---,0.00,VWS V14.01,2013-04-04 18:43:00,
2013-04-04 11:48:00,64.9,33.6,29.29,WSW,246,7.8,8.7,31,0.00,,---,0.00,VWS V14.01,2013-04-04 18:48:00,
2013-04-04 11:53:00,64.6,32.5,29.29,WSW,247,9.2,9.2,30,0.00,,---,0.00,VWS V14.01,2013-04-04 18:53:00,
2013-04-04 11:58:00,64.2,32.2,29.29,West,269,3.6,6.7,30,0.00,,---,0.00,VWS V14.01,2013-04-04 18:58:00,
2013-04-04 12:03:00,65.8,32.7,29.32,WSW,255,8.7,8.7,29,0.00,,---,0.00,VWS V14.01,2013-04-04 19:03:00,
2013-04-04 12:08:00,67.3,32.2,29.32,WNW,283,7.8,9.2,27,0.00,,---,0.00,VWS V14.01,2013-04-04 19:08:00,
2013-04-04 12:13:00,67.1,31.1,29.32,West,277,4.0,6.3,26,0.00,,---,0.00,VWS V14.01,2013-04-04 19:13:00,
2013-04-04 12:18:00,67.6,31.6,29.29,WNW,283,4.0,7.4,26,0.00,,---,0.00,VWS V14.01,2013-04-04 19:18:00,
2013-04-04 12:23:00,67.1,29.1,29.29,SSW,210,4.5,4.9,24,0.00,,---,0.00,VWS V14.01,2013-04-04 19:23:00,
2013-04-04 12:29:00,66.2,29.4,29.29,West,268,4.9,11.0,25,0.00,,---,0.00,VWS V14.01,2013-04-04 19:29:00,
2013-04-04 12:34:00,66.6,30.6,29.32,WSW,246,4.9,8.3,26,0.00,,---,0.00,VWS V14.01,2013-04-04 19:34:00,
2013-04-04 12:40:00,65.7,28.9,29.32,West,278,6.7,8.7,25,0.00,,---,0.00,VWS V14.01,2013-04-04 19:40:00,
2013-04-04 12:46:00,65.1,28.5,29.32,SW,220,6.9,8.3,25,0.00,,---,0.00,VWS V14.01,2013-04-04 19:46:00,
2013-04-04 12:51:00,66.2,29.4,29.29,WSW,247,8.7,9.6,25,0.00,,---,0.00,VWS V14.01,2013-04-04 19:51:00,
2013-04-04 12:56:00,66.2,28.4,29.29,WSW,256,7.4,9.6,24,0.00,,---,0.00,VWS V14.01,2013-04-04 19:56:00,
2013-04-04 13:01:00,65.8,29.1,29.29,West,262,4.5,8.3,25,0.00,,---,0.00,VWS V14.01,2013-04-04 20:01:00,
2013-04-04 13:06:00,66.0,28.2,29.29,WNW,288,8.7,8.7,24,0.00,,---,0.00,VWS V14.01,2013-04-04 20:06:00,
2013-04-04 13:11:00,65.8,28.1,29.29,WSW,257,8.7,8.7,24,0.00,,---,0.00,VWS V14.01,2013-04-04 20:11:00,
2013-04-04 13:16:00,66.0,28.2,29.29,West,273,6.9,9.6,24,0.00,,---,0.00,VWS V14.01,2013-04-04 20:16:00,
2013-04-04 13:21:00,66.0,28.2,29.29,SSW,209,6.3,6.7,24,0.00,,---,0.00,VWS V14.01,2013-04-04 20:21:00,
2013-04-04 13:26:00,66.2,28.4,29.29,SW,219,9.2,10.5,24,0.00,,---,0.00,VWS V14.01,2013-04-04 20:26:00,
2013-04-04 13:31:00,66.0,28.2,29.29,West,263,8.7,11.0,24,0.00,,---,0.00,VWS V14.01,2013-04-04 20:31:00,
2013-04-04 13:36:00,66.0,28.2,29.29,SSW,204,12.5,12.5,24,0.00,,---,0.00,VWS V14.01,2013-04-04 20:36:00,
2013-04-04 13:41:00,65.5,27.8,29.29,WSW,237,5.8,9.2,24,0.00,,---,0.00,VWS V14.01,2013-04-04 20:41:00,
2013-04-04 13:46:00,66.4,28.5,29.29,WSW,252,5.8,8.7,24,0.00,,---,0.00,VWS V14.01,2013-04-04 20:46:00,
2013-04-04 13:51:00,66.6,27.6,29.29,SW,224,7.4,10.1,23,0.00,,---,0.00,VWS V14.01,2013-04-04 20:51:00,
2013-04-04 13:56:00,66.9,29.0,29.29,WSW,255,9.6,12.1,24,0.00,,---,0.00,VWS V14.01,2013-04-04 20:56:00,
2013-04-04 14:01:00,66.9,29.0,29.29,SW,230,6.9,10.1,24,0.00,,---,0.00,VWS V14.01,2013-04-04 21:01:00,
2013-04-04 14:07:00,66.9,27.9,29.29,WSW,256,9.2,12.5,23,0.00,,---,0.00,VWS V14.01,2013-04-04 21:07:00,
2013-04-04 14:12:00,66.9,27.9,29.29,WSW,248,8.3,11.6,23,0.00,,---,0.00,VWS V14.01,2013-04-04 21:12:00,
2013-04-04 14:17:00,66.6,27.6,29.29,SW,224,11.0,11.0,23,0.00,,---,0.00,VWS V14.01,2013-04-04 21:17:00,
2013-04-04 14:22:00,66.4,28.5,29.29,West,265,9.2,9.2,24,0.00,,---,0.00,VWS V14.01,2013-04-04 21:22:00,
2013-04-04 14:27:00,67.5,28.4,29.29,SW,230,7.4,11.0,23,0.00,,---,0.00,VWS V14.01,2013-04-04 21:27:00,
2013-04-04 14:32:00,66.9,27.9,29.29,SW,234,7.8,9.6,23,0.00,,---,0.00,VWS V14.01,2013-04-04 21:32:00,
2013-04-04 14:37:00,67.3,28.2,29.29,SW,219,8.7,9.6,23,0.00,,---,0.00,VWS V14.01,2013-04-04 21:37:00,
2013-04-04 14:42:00,68.7,29.5,29.29,WSW,247,8.7,10.5,23,0.00,,---,0.00,VWS V14.01,2013-04-04 21:42:00,
2013-04-04 14:47:00,68.5,29.3,29.29,SW,233,10.5,11.0,23,0.00,,---,0.00,VWS V14.01,2013-04-04 21:47:00,
2013-04-04 14:52:00,67.8,28.7,29.29,WSW,251,11.2,12.1,23,0.00,,---,0.00,VWS V14.01,2013-04-04 21:52:00,
2013-04-04 14:57:00,68.2,29.0,29.29,SW,230,11.0,11.0,23,0.00,,---,0.00,VWS V14.01,2013-04-04 21:57:00,
2013-04-04 15:02:00,69.3,29.9,29.26,SW,232,9.2,11.0,23,0.00,,---,0.00,VWS V14.01,2013-04-04 22:02:00,
2013-04-04 15:07:00,70.2,29.6,29.26,West,260,10.1,12.5,22,0.00,,---,0.00,VWS V14.01,2013-04-04 22:07:00,
2013-04-04 15:12:00,69.3,28.8,29.26,WSW,245,11.2,12.5,22,0.00,,---,0.00,VWS V14.01,2013-04-04 22:12:00,
2013-04-04 15:17:00,69.3,28.8,29.26,WSW,240,8.3,13.9,22,0.00,,---,0.00,VWS V14.01,2013-04-04 22:17:00,
2013-04-04 15:22:00,69.4,29.0,29.26,WSW,242,11.0,11.2,22,0.00,,---,0.00,VWS V14.01,2013-04-04 22:22:00,
2013-04-04 15:27:00,69.3,28.8,29.26,WSW,255,9.2,11.2,22,0.00,,---,0.00,VWS V14.01,2013-04-04 22:27:00,
2013-04-04 15:33:00,67.3,28.2,29.29,SW,234,12.5,13.4,23,0.00,,---,0.00,VWS V14.01,2013-04-04 22:33:00,
2013-04-04 15:40:00,67.5,28.4,29.29,West,263,11.0,13.4,23,0.00,,---,0.00,VWS V14.01,2013-04-04 22:40:00,
2013-04-04 15:45:00,66.7,27.8,29.29,SSW,199,9.2,15.4,23,0.00,,---,0.00,VWS V14.01,2013-04-04 22:45:00,
2013-04-04 15:50:00,66.9,27.9,29.26,WSW,242,8.7,13.9,23,0.00,,---,0.00,VWS V14.01,2013-04-04 22:50:00,
2013-04-04 15:55:00,66.7,27.8,29.26,WSW,245,13.0,14.8,23,0.00,,---,0.00,VWS V14.01,2013-04-04 22:55:00,
2013-04-04 16:00:00,66.9,27.9,29.26,WSW,237,13.4,15.4,23,0.00,,---,0.00,VWS V14.01,2013-04-04 23:00:00,
2013-04-04 16:05:00,66.4,27.5,29.29,SW,233,10.5,14.3,23,0.00,,---,0.00,VWS V14.01,2013-04-04 23:05:00,
2013-04-04 16:11:00,66.6,27.6,29.29,West,262,13.0,13.4,23,0.00,,---,0.00,VWS V14.01,2013-04-04 23:11:00,
2013-04-04 16:16:00,66.7,27.8,29.29,WSW,242,9.6,12.1,23,0.00,,---,0.00,VWS V14.01,2013-04-04 23:16:00,
2013-04-04 16:21:00,67.3,28.2,29.29,WSW,257,7.8,13.0,23,0.00,,---,0.00,VWS V14.01,2013-04-04 23:21:00,
2013-04-04 16:26:00,66.9,27.9,29.29,WSW,253,11.0,12.1,23,0.00,,---,0.00,VWS V14.01,2013-04-04 23:26:00,
2013-04-04 16:31:00,67.1,28.1,29.29,West,259,9.2,11.0,23,0.00,,---,0.00,VWS V14.01,2013-04-04 23:31:00,
2013-04-04 16:36:00,67.1,28.1,29.29,WSW,257,13.4,13.4,23,0.00,,---,0.00,VWS V14.01,2013-04-04 23:36:00,
2013-04-04 16:41:00,67.1,28.1,29.29,West,268,11.2,13.9,23,0.00,,---,0.00,VWS V14.01,2013-04-04 23:41:00,
2013-04-04 16:46:00,66.4,27.5,29.29,West,264,15.2,15.2,23,0.00,,---,0.00,VWS V14.01,2013-04-04 23:46:00,
2013-04-04 16:51:00,65.7,27.9,29.29,West,275,9.2,13.0,24,0.00,,---,0.00,VWS V14.01,2013-04-04 23:51:00,
2013-04-04 16:56:00,65.8,28.1,29.29,West,271,13.4,13.4,24,0.00,,---,0.00,VWS V14.01,2013-04-04 23:56:00,
2013-04-04 17:01:00,67.3,28.2,29.29,West,270,13.4,13.4,23,0.00,,---,0.00,VWS V14.01,2013-04-05 00:01:00,
2013-04-04 17:07:00,67.6,28.5,29.29,West,269,9.6,13.9,23,0.00,,---,0.00,VWS V14.01,2013-04-05 00:07:00,
2013-04-04 17:12:00,67.1,28.1,29.29,NW,304,11.2,12.1,23,0.00,,---,0.00,VWS V14.01,2013-04-05 00:12:00,
2013-04-04 17:18:00,66.9,27.9,29.29,WNW,295,10.5,11.0,23,0.00,,---,0.00,VWS V14.01,2013-04-05 00:18:00,
2013-04-04 17:23:00,66.7,28.8,29.29,West,275,7.4,11.6,24,0.00,,---,0.00,VWS V14.01,2013-04-05 00:23:00,
2013-04-04 17:28:00,66.2,28.4,29.29,WNW,290,8.3,11.2,24,0.00,,---,0.00,VWS V14.01,2013-04-05 00:28:00,
2013-04-04 17:33:00,65.7,27.9,29.29,WNW,287,10.5,13.9,24,0.00,,---,0.00,VWS V14.01,2013-04-05 00:33:00,
2013-04-04 17:38:00,65.8,28.1,29.29,WNW,290,7.8,11.6,24,0.00,,---,0.00,VWS V14.01,2013-04-05 00:38:00,
2013-04-04 17:43:00,65.7,27.9,29.29,West,271,5.4,11.2,24,0.00,,---,0.00,VWS V14.01,2013-04-05 00:43:00,
2013-04-04 17:48:00,65.8,28.1,29.29,West,281,12.1,15.4,24,0.00,,---,0.00,VWS V14.01,2013-04-05 00:48:00,
2013-04-04 17:53:00,65.3,27.6,29.29,WNW,283,8.7,10.5,24,0.00,,---,0.00,VWS V14.01,2013-04-05 00:53:00,
2013-04-04 17:58:00,64.6,27.0,29.29,WNW,295,15.4,15.4,24,0.00,,---,0.00,VWS V14.01,2013-04-05 00:58:00,
2013-04-04 18:03:00,64.0,26.5,29.29,WNW,292,10.1,14.8,24,0.00,,---,0.00,VWS V14.01,2013-04-05 01:03:00,
2013-04-04 18:09:00,63.5,27.1,29.29,West,274,6.7,14.3,25,0.00,,---,0.00,VWS V14.01,2013-04-05 01:09:00,
2013-04-04 18:14:00,63.5,27.1,29.29,West,262,11.2,11.2,25,0.00,,---,0.00,VWS V14.01,2013-04-05 01:14:00,
2013-04-04 18:20:00,63.1,27.7,29.29,WNW,296,11.0,12.5,26,0.00,,---,0.00,VWS V14.01,2013-04-05 01:20:00,
2013-04-04 18:26:00,62.6,27.3,29.29,West,276,8.7,12.5,26,0.00,,---,0.00,VWS V14.01,2013-04-05 01:26:00,
2013-04-04 18:31:00,62.4,27.1,29.29,WNW,297,10.1,12.5,26,0.00,,---,0.00,VWS V14.01,2013-04-05 01:31:00,
2013-04-04 18:37:00,61.9,26.6,29.29,WNW,282,8.3,12.1,26,0.00,,---,0.00,VWS V14.01,2013-04-05 01:37:00,
2013-04-04 18:42:00,61.7,27.4,29.29,WNW,285,12.5,13.0,27,0.00,,---,0.00,VWS V14.01,2013-04-05 01:42:00,
2013-04-04 18:47:00,61.5,27.2,29.29,WNW,291,11.0,11.0,27,0.00,,---,0.00,VWS V14.01,2013-04-05 01:47:00,
2013-04-04 18:52:00,61.5,27.2,29.29,WNW,291,11.0,11.0,27,0.00,,---,0.00,VWS V14.01,2013-04-05 01:52:00,
2013-04-04 18:57:00,61.5,27.2,29.29,WNW,291,11.0,11.0,27,0.00,,---,0.00,VWS V14.01,2013-04-05 01:57:00,
2013-04-04 19:02:00,60.3,27.9,29.29,West,275,6.7,11.6,29,0.00,,---,0.00,VWS V14.01,2013-04-05 02:02:00,
2013-04-04 19:07:00,59.7,29.8,29.29,West,272,11.0,11.6,32,0.00,,---,0.00,VWS V14.01,2013-04-05 02:07:00,
2013-04-04 19:12:00,59.4,31.0,29.29,WNW,283,9.6,11.2,34,0.00,,---,0.00,VWS V14.01,2013-04-05 02:12:00,
2013-04-04 19:17:00,59.0,31.4,29.29,West,272,6.7,10.1,35,0.00,,---,0.00,VWS V14.01,2013-04-05 02:17:00,
2013-04-04 19:23:00,58.6,31.8,29.29,West,278,10.1,12.5,36,0.00,,---,0.00,VWS V14.01,2013-04-05 02:23:00,
2013-04-04 19:28:00,58.5,31.6,29.29,WSW,251,8.7,11.0,36,0.00,,---,0.00,VWS V14.01,2013-04-05 02:28:00,
2013-04-04 19:33:00,58.5,32.3,29.29,West,276,8.3,10.1,37,0.00,,---,0.00,VWS V14.01,2013-04-05 02:33:00,
2013-04-04 19:38:00,58.3,32.2,29.29,West,273,4.9,7.4,37,0.00,,---,0.00,VWS V14.01,2013-04-05 02:38:00,
2013-04-04 19:43:00,58.3,32.2,29.29,West,267,7.4,7.4,37,0.00,,---,0.00,VWS V14.01,2013-04-05 02:43:00,
2013-04-04 19:49:00,58.3,32.2,29.29,West,267,7.4,7.4,37,0.00,,---,0.00,VWS V14.01,2013-04-05 02:49:00,
2013-04-04 19:54:00,58.3,32.2,29.29,West,268,5.4,5.4,37,0.00,,---,0.00,VWS V14.01,2013-04-05 02:54:00,
2013-04-04 20:00:00,57.7,32.3,29.29,WNW,296,7.4,10.1,38,0.00,,---,0.00,VWS V14.01,2013-04-05 03:00:00,
2013-04-04 20:05:00,57.7,33.0,29.29,West,276,5.8,5.8,39,0.00,,---,0.00,VWS V14.01,2013-04-05 03:05:00,
2013-04-04 20:11:00,57.7,33.0,29.29,West,276,5.8,5.8,39,0.00,,---,0.00,VWS V14.01,2013-04-05 03:11:00,
2013-04-04 20:16:00,57.7,33.0,29.29,West,276,5.8,5.8,39,0.00,,---,0.00,VWS V14.01,2013-04-05 03:16:00,
2013-04-04 20:21:00,57.7,33.0,29.29,West,276,5.8,5.8,39,0.00,,---,0.00,VWS V14.01,2013-04-05 03:21:00,
2013-04-04 20:26:00,57.7,33.0,29.29,West,276,5.8,5.8,39,0.00,,---,0.00,VWS V14.01,2013-04-05 03:26:00,
2013-04-04 20:31:00,57.7,33.0,29.29,West,276,5.8,5.8,39,0.00,,---,0.00,VWS V14.01,2013-04-05 03:31:00,
2013-04-04 20:36:00,56.7,35.0,29.29,West,263,11.0,11.0,44,0.00,,---,0.00,VWS V14.01,2013-04-05 03:36:00,
2013-04-04 20:41:00,56.8,34.6,29.29,WNW,284,10.5,11.0,43,0.00,,---,0.00,VWS V14.01,2013-04-05 03:41:00,
2013-04-04 20:46:00,57.0,34.8,29.29,West,269,12.1,12.1,43,0.00,,---,0.00,VWS V14.01,2013-04-05 03:46:00,
2013-04-04 20:51:00,57.2,34.9,29.32,West,271,10.1,10.1,43,0.00,,---,0.00,VWS V14.01,2013-04-05 03:51:00,
2013-04-04 20:56:00,57.2,34.9,29.32,West,271,10.1,10.1,43,0.00,,---,0.00,VWS V14.01,2013-04-05 03:56:00,
2013-04-04 21:00:00,57.2,34.9,29.32,WNW,282,8.7,10.1,43,0.00,,---,0.00,VWS V14.01,2013-04-05 04:00:00,
2013-04-04 21:01:00,57.2,34.9,29.32,WNW,282,8.7,8.7,43,0.00,,---,0.00,VWS V14.01,2013-04-05 04:01:00,
2013-04-04 21:02:00,57.2,34.9,29.32,WNW,282,8.7,8.7,43,0.00,,---,0.00,VWS V14.01,2013-04-05 04:02:00,
2013-04-04 21:07:00,57.2,34.9,29.32,WNW,282,8.7,8.7,43,0.00,,---,0.00,VWS V14.01,2013-04-05 04:07:00,
2013-04-04 21:12:00,57.2,34.9,29.32,West,274,10.5,10.5,43,0.00,,---,0.00,VWS V14.01,2013-04-05 04:12:00,
2013-04-04 21:13:00,57.2,34.9,29.32,West,274,10.5,10.5,43,0.00,,---,0.00,VWS V14.01,2013-04-05 04:13:00,
2013-04-04 21:18:00,57.2,34.9,29.32,West,277,10.5,10.5,43,0.00,,---,0.00,VWS V14.01,2013-04-05 04:18:00,
2013-04-04 21:23:00,57.2,34.9,29.32,West,277,10.5,10.5,43,0.00,,---,0.00,VWS V14.01,2013-04-05 04:23:00,
2013-04-04 21:28:00,57.2,34.9,29.32,West,277,10.5,10.5,43,0.00,,---,0.00,VWS V14.01,2013-04-05 04:28:00,
2013-04-04 21:33:00,57.2,34.9,29.32,West,277,10.5,10.5,43,0.00,,---,0.00,VWS V14.01,2013-04-05 04:33:00,
2013-04-04 21:38:00,57.2,34.9,29.32,West,274,6.9,10.1,43,0.00,,---,0.00,VWS V14.01,2013-04-05 04:38:00,
2013-04-04 21:43:00,57.0,34.8,29.32,WNW,287,9.6,11.0,43,0.00,,---,0.00,VWS V14.01,2013-04-05 04:43:00,
2013-04-04 21:48:00,56.8,34.6,29.32,West,269,8.3,12.5,43,0.00,,---,0.00,VWS V14.01,2013-04-05 04:48:00,
2013-04-04 21:53:00,56.8,34.6,29.32,West,268,11.0,13.0,43,0.00,,---,0.00,VWS V14.01,2013-04-05 04:53:00,
2013-04-04 21:58:00,56.8,34.0,29.32,West,281,7.8,8.3,42,0.00,,---,0.00,VWS V14.01,2013-04-05 04:58:00,
2013-04-04 22:03:00,56.8,34.0,29.32,West,281,6.9,10.5,42,0.00,,---,0.00,VWS V14.01,2013-04-05 05:03:00,
2013-04-04 22:08:00,57.0,34.2,29.32,WSW,256,7.8,9.2,42,0.00,,---,0.00,VWS V14.01,2013-04-05 05:08:00,
2013-04-04 22:13:00,57.0,34.2,29.32,West,281,11.0,11.6,42,0.00,,---,0.00,VWS V14.01,2013-04-05 05:13:00,
2013-04-04 22:19:00,57.2,34.3,29.35,West,268,9.2,10.1,42,0.00,,---,0.00,VWS V14.01,2013-04-05 05:19:00,
2013-04-04 22:25:00,57.2,33.7,29.35,West,268,7.4,10.5,41,0.00,,---,0.00,VWS V14.01,2013-04-05 05:25:00,
2013-04-04 22:30:00,57.2,33.7,29.35,WSW,251,8.7,9.2,41,0.00,,---,0.00,VWS V14.01,2013-04-05 05:30:00,
2013-04-04 22:35:00,57.2,33.7,29.32,West,262,8.3,8.3,41,0.00,,---,0.00,VWS V14.01,2013-04-05 05:35:00,
2013-04-04 22:40:00,57.2,33.7,29.32,West,262,10.5,11.6,41,0.00,,---,0.00,VWS V14.01,2013-04-05 05:40:00,
2013-04-04 22:45:00,57.2,33.7,29.32,West,274,8.3,11.2,41,0.00,,---,0.00,VWS V14.01,2013-04-05 05:45:00,
2013-04-04 22:51:00,57.2,33.7,29.32,West,259,6.7,9.2,41,0.00,,---,0.00,VWS V14.01,2013-04-05 05:51:00,
2013-04-04 22:56:00,57.2,33.7,29.32,West,269,6.3,8.3,41,0.00,,---,0.00,VWS V14.01,2013-04-05 05:56:00,
2013-04-04 23:01:00,57.2,33.7,29.32,West,273,8.3,8.7,41,0.00,,---,0.00,VWS V14.01,2013-04-05 06:01:00,
2013-04-04 23:06:00,57.2,33.7,29.32,West,274,5.8,7.8,41,0.00,,---,0.00,VWS V14.01,2013-04-05 06:06:00,
2013-04-04 23:11:00,57.2,34.3,29.32,WNW,286,7.8,8.7,42,0.00,,---,0.00,VWS V14.01,2013-04-05 06:11:00,
2013-04-04 23:16:00,57.2,34.3,29.32,WNW,288,8.3,10.1,42,0.00,,---,0.00,VWS V14.01,2013-04-05 06:16:00,
2013-04-04 23:21:00,57.0,34.8,29.32,WNW,289,9.6,9.6,43,0.00,,---,0.00,VWS V14.01,2013-04-05 06:21:00,
2013-04-04 23:26:00,57.0,34.8,29.32,West,267,11.0,11.0,43,0.00,,---,0.00,VWS V14.01,2013-04-05 06:26:00,
2013-04-04 23:31:00,56.8,34.6,29.32,WNW,283,9.2,11.0,43,0.00,,---,0.00,VWS V14.01,2013-04-05 06:31:00,
2013-04-04 23:36:00,56.8,35.2,29.35,West,262,8.7,9.2,44,0.00,,---,0.00,VWS V14.01,2013-04-05 06:36:00,
2013-04-04 23:41:00,56.8,35.2,29.35,WSW,249,11.0,11.6,44,0.00,,---,0.00,VWS V14.01,2013-04-05 06:41:00,
2013-04-04 23:46:00,56.8,34.6,29.35,West,277,7.4,9.2,43,0.00,,---,0.00,VWS V14.01,2013-04-05 06:46:00,
2013-04-04 23:52:00,56.8,34.6,29.35,WSW,257,8.7,10.5,43,0.00,,---,0.00,VWS V14.01,2013-04-05 06:52:00,
2013-04-04 23:57:00,56.7,34.4,29.35,WSW,255,10.1,10.1,43,0.00,,---,0.00,VWS V14.01,2013-04-05 06:57:00,